Location: Saint Mary
(48.7436°N, 113.4291°W)
Time: 18:38:54
(UTC+00:00)

Tiangong - Visible Passes

Search period start: 28 May 2023 00:00
Search period end: 07 June 2023 00:00
Orbit: 387 x 392 km, 41.5° (Epoch: 28 May)

Date Brightness Start Highest point End Pass type
(mag) Time Alt. Az. Time Alt. Az. Time Alt. Az.
03 Jun 0.5 10:17:12 10° S 10:18:08 11° SSE 10:19:04 10° SE visible
05 Jun -0.1 10:16:02 13° SSW 10:17:46 18° SSE 10:20:16 10° ESE visible
06 Jun 0.0 09:31:09 16° SSE 09:31:09 16° SSE 09:33:19 10° ESE visible
